Время (UTC), дата Ветер
(°,м/с) 
Видим.   Явления Облачность Т
(°С)
Тd
(°С)
f(%) Тe
(°С)
Pmin
(гПа)
dP
(гПа)
Po
(мм)
O2
(г/м3)
Тmin Tmax R s Состояние
почвы
00 01.08.17 320 (СЗ) 20000 м    ясно 
+19.2 +11.4 61 +24  1019.5  0.5  726  271           
03 01.08.17 тихо ()   20000 м    ясно 
+17.6 +11.8 69 +22  1020.2  0.4  726  273  +15.7        сухая 
06 01.08.17 тихо ()   20000 м    ясно 
+25.9 +11.3 40 +29  1019.5  0.7  727  265           
09 01.08.17 320 (СЗ) 20000 м    ясно 
+28.2 +10.2 33 +30  1019  0.7  726  263           
12 01.08.17 350 (С) 20000 м    ясно 
+29.8 +9.8 29 +31  1017.8  -0.9  726  262           
15 01.08.17 020 (С) 20000 м    ясно 
+28.8 +10.2 31 +31  1017.8  -0.2  726  263    +29.9       
18 01.08.17 020 (С) 20000 м    ясно 
+24.1 +9.3 39 +25  1019.7  726  267           
21 01.08.17 020 (С) 20000 м    ясно 
+22.7 +8.1 39 +23  1019.5  -0.4  726  269           
00 02.08.17 050 (СВ) 20000 м    ясно 
+20.8 +8.6 45 +21  1019.3  -0.5  726  270           
03 02.08.17 070 (В) 20000 м    ясно 
+21.5 +9.3 46 +22  1019  0.1  726  269  +19.3        сухая 
06 02.08.17 090 (В) 20000 м    ясно 
+27.4 +9.5 33 +29  1018.2  0.2  726  264           
09 02.08.17 070 (В) 6{10}  20000 м    ясно 
+30.3 +7.9 25 +30  1016.7  -1  725  262           
12 02.08.17 080 (В) 6-11{11}  20000 м    ясно 
+32 +9.1 24 +33  1014.9  -1.4  724  260           
15 02.08.17 080 (В) 6{11}  20000 м    ясно 
+30.5 +7.9 24 +31  1014.3  -0.8  723  261    +32.4       
18 02.08.17 070 (В) 20000 м    ясно 
+24.5 +8.2 35 +25  1015.6  0.2  724  266           
21 02.08.17 090 (В) 20000 м    ясно 
+21.5 +8.6 44 +22  1015.3  -0.7  723  269           
00 03.08.17 050 (СВ) 20000 м    ясно 
+20.7 +8.9 47 +21  1014.8  -0.7  722  269           
03 03.08.17 080 (В) 20000 м    ясно 
+21.9 +9.9 46 +24  1014.6  0.1  723  268  +19.4        сухая 
06 03.08.17 100 (В) 20000 м    ясно 
+28.4 +11.3 35 +32  1013.6  0.1  723  262           
09 03.08.17 100 (В) 9-13{15}  20000 м    ясно 
+32.2 +10.4 26 +35  1011.6  -1.3  722  258           
12 03.08.17 100 (В) 7-12{16}  20000 м    ясно 
+33.5 +8.9 22 +34  1009.5  -1.8  720  257           
15 03.08.17 090 (В) 6{12}  20000 м    ясно 
+32.1 +7.9 22 +32  1008.7  -0.9  720  258    +33.8       
18 03.08.17 080 (В) 20000 м    3/0 верхняя 
[Ci fib]
+25.4 +8 33 +25  1010.1  0.2  720  264           
21 03.08.17 130 (ЮВ) 20000 м    ясно 
+23.8 +10.8 44 +27  1010.1  0.2  720  265           
00 04.08.17 060 (СВ) 20000 м    ясно 
+20.2 +11 55 +24  1010.7  720  268           
03 04.08.17 060 (СВ) 20000 м    ясно 
+21.1 +11.6 55 +25  1010.5  720  267  +19        сухая 
06 04.08.17 100 (В) 20000 м    ясно 
+26.5 +11.3 39 +30  1009.8  0.2  720  262           
09 04.08.17 090 (В) 6-11{12}  20000 м    4/0 верхняя 
[Ci fib]
+31.2 +9.6 26 +33  1008.2  -0.8  719  258           
12 04.08.17 080 (В) 6-10{11}  20000 м    6/0 верхняя 
[Ci fib]
+32.8 +10.4 25 +35  1007.1  -0.8  719  257           
15 04.08.17 070 (В) 6{10}  20000 м    6/0 верхняя 
[Ci fib]
+30.9 +10 27 +33  1006.8  -0.6  718  258    +33.3       
18 04.08.17 040 (СВ) 20000 м    4/0 верхняя 
[Ci fib]
+27 +10.3 35 +29  1008.1  0.6  719  262           
21 04.08.17 070 (В) 20000 м    ясно 
+22.5 +11.3 49 +26  1009  0.2  719  265           
00 05.08.17 180 (Ю) 20000 м    ясно 
+21 +14.2 65 +29  1009.3  0.1  719  266           
03 05.08.17 190 (Ю) 20000 м    ясно 
+19.6 +15 75 +31  1010.1  0.5  719  267  +16.5        сухая 
06 05.08.17 080 (В) 20000 м    ясно 
+29.1 +12.7 36 +35  1009.3  0.8  720  260           
09 05.08.17 050 (СВ) 6{11}  20000 м    ясно 
+32.4 +9 24 +33  1008.5  -0.3  719  258           
12 05.08.17 060 (СВ) 5{11}  20000 м    ясно 
+33.4 +11.4 26 +37  1007.6  -0.6  719  256           
15 05.08.17 100 (В) 20000 м    3/0 верхняя 
[Ci sp]
+32.2 +12.3 30 +38  1007.7  719  257    +33.8       
18 05.08.17 050 (СВ) 20000 м    3/0 верхняя 
[Ci fib]
+28 +12.1 37 +33  1009.1  0.7  719  261           
21 05.08.17 030 (СВ) 20000 м    ясно 
+25.3 +10.1 38 +27  1009.3  -0.3  719  263           
00 06.08.17 050 (СВ) 20000 м    3/0 верхняя 
[Ci fib]
+23.1 +10 43 +25  1010.4  0.7  720  266           
03 06.08.17 тихо ()   20000 м    4/0 верхняя 
[Ci fib]
+23.6 +13.2 52 +30  1010.9  0.7  720  264  +20.9        сухая 
06 06.08.17 070 (В) 20000 м    ясно 
+30.9 +11.3 30 +35  1010.4  0.7  721  259           
09 06.08.17 070 (В) 8-12{13}  20000 м    ясно 
+34.3 +5.7 17 +34  1009.6  -0.4  720  257           
12 06.08.17 090 (В) 8-10{12}  20000 м    ясно 
+35.2 +6.9 17 +35  1008.4  -1  720  256           
15 06.08.17 090 (В) 6{11}  20000 м    3/0 средняя 
[Ac trans]
+33.8 +6.8 19 +34  1008.2  -0.4  719  257    +35.5       
18 06.08.17 050 (СВ) 20000 м    4/0 средняя 
[Ac trans]
+28.2 +7.1 26 +28  1010.1  0.9  720  262           
21 06.08.17 070 (В) 20000 м    8/3 1000 м средняя 
[Sc|Ac trans]
+26.8 +8.3 31 +27  1009.6  -0.8  720  263           
00 07.08.17 050 (СВ) 20000 м    3/0 средняя 
[Ac trans]
+22.8 +12 51 +28  1009.3  -0.9  719  265           
03 07.08.17 050 (СВ) 20000 м    3/0 средняя 
[Ac trans]
+21.4 +12.4 56 +27  1009.5  719  266  +20.6        сухая 
06 07.08.17 100 (В) 20000 м    ясно 
+26.4 +18.2 61 +43  1009  0.5  719  260           
09 07.08.17 110 (В) 20000 м    ясно 
+32.1 +16.6 39 +45  1007.7  -0.4  719  256           
12 07.08.17 110 (В) 20000 м    3/3 600 м 
[Cu hum]
+35.3 +16.4 33 +48  1006.2  -0.9  718  253           
15 07.08.17 100 (В) 20000 м    4/4 600 м 
[Cu hum]
+34.7 +10.4 23 +37  1006.6  0.1  718  255    +35.7       
18 07.08.17 070 (В) 20000 м    3/0 средняя 
[Ac trans]
+27.2 +6.8 27 +27  1008.9  0.9  719  262           
21 07.08.17 110 (В) 20000 м    3/0 средняя 
[Ac trans]
+25.6 +6.7 30 +26  1009.6  0.5  719  264           
00 08.08.17 170 (Ю) 20000 м    ясно 
+23.6 +6.9 34 +24  1009.5  0.5  719  266           
03 08.08.17 210 (ЮЗ) 20000 м    3/0 средняя 
[Ac trans]
+22.5 +10 45 +24  1010.2  0.5  719  266  +22.1        сухая 
06 08.08.17 270 (З) 20000 м    3/3 1000 м 
[Sc]
+31.2 +15.9 40 +43  1008.7  0.1  720  257           
09 08.08.17 300 (СЗ) 5{10}  20000 м    1/1 1000 м 
[Cu med, cong]
+34.1 +17 36 +48  1008.6  0.3  720  254           
12 08.08.17 290 (З) 7-10{11}  20000 м    1/0 средняя 
[Ac trans]
+35.7 +14.7 29 +45  1008  -0.3  720  253           
15 08.08.17 280 (З) 5{11}  20000 м    3/0 средняя 
[Ac trans]
+33.4 +12.7 29 +39  1009.2  0.7  720  256    +36.1       
18 08.08.17 270 (З) 20000 м    4/0 средняя 
[Ac trans]
+29.1 +16.5 47 +42  1011  1.1  721  259           
21 08.08.17 280 (З) 20000 м    ясно 
+26.8 +17.8 58 +42  1011.4  721  260           
00 09.08.17 280 (З) 20000 м    ясно 
+24.7 +18.7 69 +42  1012.2  0.5  721  262           
03 09.08.17 250 (З) 20000 м    ясно 
+24.5 +17 63 +38  1013.1  0.8  722  263  +22.8        сухая 
06 09.08.17 260 (З) 7-11{11}  20000 м    ясно 
+28.6 +18.4 54 +45  1012.6  0.1  722  259           
09 09.08.17 260 (З) 6{12}  20000 м    ясно 
+32.8 +18.5 43 +49  1011.8  0.1  722  255           
12 09.08.17 320 (СЗ) 20000 м    4/4 600 м 
[Cu hum]
+34.4 +15.8 33 +46  1011.1  -0.5  722  255           
15 09.08.17 270 (З) 20000 м  в посл. час гроза  8/3 1000 м кучево-дожд., средняя, верхняя 
[Cb calv|Ac trans|Ci fib]
+32.3 +15.8 37 +43  1011.5  0.1  722  257    +34.8       
18 09.08.17 270 (З) 20000 м  {гроза}  3/0 средняя 
[Ac trans]
+28.1 +16.5 49 +41  1013.3  722  260           
21 09.08.17 060 (СВ) 20000 м    3/0 средняя 
[Ac trans]
+26.2 +11 39 +29  1015.1  1.3  723  264           
00 10.08.17 050 (СВ) 20000 м    ясно 
+23.1 +11.7 49 +27  1016.8  1.1  724  267           
03 10.08.17 070 (В) 20000 м    ясно 
+20.5 +10.5 53 +23  1018.4  725  270  +20.5        сухая 
06 10.08.17 080 (В) 20000 м    ясно 
+25.5 +10 38 +27  1018  0.5  725  266           
09 10.08.17 080 (В) 8-11{13}  20000 м    ясно 
+29.9 +8.4 26 +30  1016.7  -0.6  725  262           
12 10.08.17 070 (В) 8-12{13}  20000 м    ясно 
+31.4 +7.4 22 +31  1015.6  -0.9  724  261           
15 10.08.17 080 (В) 8-11{12}  20000 м    ясно 
+29.4 +6.3 23 +29  1015.4  -0.5  724  262    +31.6       
18 10.08.17 080 (В) 8-11{11}  20000 м    ясно 
+24.8 +2.7 24 +25  1016.7  0.4  724  267           
21 10.08.17 080 (В) 7{12}  20000 м    ясно 
+21.3 +1.4 27 +21  1017.1  0.4  724  270           
00 11.08.17 110 (В) 20000 м    ясно 
+20.2 +10.9 55 +23  1016.4  -0.7  724  269           
03 11.08.17 100 (В) 20000 м    ясно 
+19.7 +8.5 48 +20  1016.1  -0.5  723  270  +18.2        сухая 
06 11.08.17 110 (В) 12-15{16}  20000 м    ясно 
+24.4 +6.8 32 +24  1014.7  -0.5  723  266           
09 11.08.17 100 (В) 10-14{16}  20000 м    ясно 
+28.4 +8.4 28 +28  1013.4  -0.6  722  262           
12 11.08.17 100 (В) 10-15{16}  20000 м    ясно 
+30.4 +7.8 24 +30  1011.6  -1.4  721  260           
15 11.08.17 100 (В) 9-12  20000 м    3/0 верхняя 
[Ci fib]
+29.2 +7.2 25 +29  1010.8  -1  721  261    +30.8       
18 11.08.17 090 (В) 8-11{12}  20000 м    ясно 
+24.9 +9 36 +26  1011.3  -0.2  721  264           
21 11.08.17 100 (В) 8-11{13}  20000 м    ясно 
+21.4 +9.7 47 +23  1012  0.1  721  267           
00 12.08.17 090 (В) 7-10{12}  20000 м    ясно 
+18.4 +11 62 +21  1012.3  -0.2  720  270           
03 12.08.17 090 (В) 20000 м    3/0 средняя 
[Ac trans]
+17.3 +11.9 71 +22  1012.9  0.5  721  271  +17.2        сухая 
06 12.08.17 120 (ЮВ) 9-12{13}  20000 м    4/0 средняя 
[Ac trans]
+23.7 +13.5 53 +31  1011.5  -0.2  721  264           
09 12.08.17 100 (В) 9-13{14}  20000 м    ясно 
+28.1 +12.6 38 +34  1010.4  -0.3  720  261           
12 12.08.17 080 (В) 8-12{15}  20000 м    3/0 средняя 
[Ac trans]
+31.1 +9.7 27 +33  1008.7  -1.2  719  259           
15 12.08.17 090 (В) 7-11  20000 м    1/1 1000 м 
[Cu hum]
+30.2 +8.1 25 +30  1008.5  -0.4  719  260    +31.5       
18 12.08.17 090 (В) 8-12{12}  20000 м    ясно 
+26.1 +9.9 36 +28  1008.8  -0.3  719  263           
21 12.08.17 090 (В) 7{12}  20000 м    ясно 
+22.4 +11.3 49 +26  1009.1  -0.3  719  265           
00 13.08.17 100 (В) 7{10}  20000 м    ясно 
+19.5 +12.2 63 +25  1009.7  0.1  719  268           
03 13.08.17 090 (В) 20000 м    ясно 
+18.1 +13.7 75 +26  1009.9  719  269  +17.6        сухая 
06 13.08.17 110 (В) 9-13{13}  20000 м    ясно 
+24.6 +15 55 +34  1008.8  0.1  719  263           
09 13.08.17 100 (В) 10-15{15}  20000 м    ясно 
+30.2 +10.6 30 +33  1007.4  -0.5  718  259           
12 13.08.17 110 (В) 10-15{17}  20000 м    ясно 
+32.7 +7.6 21 +33  1006.3  -0.7  718  257           
15 13.08.17 100 (В) 8-12{16}  20000 м    ясно 
+31 +5.2 20 +31  1006  -0.6  717  259    +33.1       
18 13.08.17 090 (В) 6{12}  20000 м    3/0 средняя 
[Ac trans]
+25.8 +3.6 24 +26  1008  718  264           
21 13.08.17 100 (В) 6{11}  20000 м    ясно 
+22.6 +10.1 45 +25  1008.8  719  266           
00 14.08.17 090 (В) 20000 м    ясно 
+18.6 +10.4 59 +22  1009.1  -0.3  718  269           
03 14.08.17 100 (В) 20000 м    3/0 средняя 
[Ac trans]
+17 +13.5 80 +24  1010.2  0.8  719  270  +16.8        сухая 
06 14.08.17 100 (В) 7-10{10}  20000 м    4/0 средняя 
[Ac trans]
+24.3 +14 53 +32  1010  1.1  720  263           
09 14.08.17 110 (В) 9-14{16}  20000 м    6/0 средняя, верхняя 
[Ac trans|Cc]
+31 +1.9 16 +31  1009.5  0.4  720  260           
12 14.08.17 100 (В) 9-13{15}  20000 м    4/0 средняя, верхняя 
[Ac trans|Cc]
+32.3 +2.8 15 +32  1008.3  -0.9  719  259           
15 14.08.17 120 (ЮВ) 6{13}  20000 м    4/0 средняя, верхняя 
[Ac trans|Ci sp]
+30.5 +3.4 18 +31  1008.8  0.2  719  260    +32.5       
18 14.08.17 080 (В) 20000 м    8/0 средняя, верхняя 
[Ac trans|Ci fib]
+25 +3.9 25 +25  1010.7  0.9  720  265           
21 14.08.17 070 (В) 20000 м    8/3 1000 м средняя 
[Sc|Ac As]
+22.8 +7.2 37 +23  1011.2  0.1  720  267           
00 15.08.17 070 (В) 20000 м    9/4 1000 м средняя 
[Sc|Ac As]
+21.2 +9.4 47 +22  1011.6  0.2  720  268           
03 15.08.17 080 (В) 20000 м    8/3 1000 м средняя 
[Sc|Ac trans]
+19 +10.4 57 +22  1013  0.9  721  270  +18.9        сухая 
06 15.08.17 110 (В) 20000 м    6/1 1000 м верхняя 
[Sc|Ci]
+25.5 +11.6 42 +30  1012.3  0.5  721  264           
09 15.08.17 120 (ЮВ) 7-10{12}  20000 м    6/1 600 м средняя 
[Cu hum|Ac trans]
+29 +9.5 30 +30  1011.7  721  261           
12 15.08.17 120 (ЮВ) 9-12{13}  20000 м    6/3 600 м верхняя 
[Cu hum|Ci fib]
+27.9 +10.4 34 +30  1011.5  -0.4  721  262           
15 15.08.17 120 (ЮВ) 6{13}  20000 м    8/0 средняя, верхняя 
[Ac trans|Ci]
+23.7 +8 37 +24  1013.8  1.5  722  266    +29.1       
18 15.08.17 140 (ЮВ) 20000 м    3/0 средняя 
[Ac trans]
+20.4 +7 42 +20  1014.3  0.1  722  270           
21 15.08.17 120 (ЮВ) 20000 м    ясно 
+17.6 +9.9 61 +20  1014.4  -0.3  722  271           
00 16.08.17 090 (В) 20000 м    ясно 
+15.6 +11.1 75 +19  1014.6  0.1  722  273           
03 16.08.17 090 (В) 20000 м    3/0 верхняя 
[Ci fib]
+16 +12.4 79 +21  1014.8  0.3  722  272  +14.4        сухая 
06 16.08.17 100 (В) 20000 м    1/0 средняя 
[Ac trans]
+23.6 +11.5 47 +28  1013.9  0.4  722  266           
09 16.08.17 080 (В) 7-14{14}  20000 м    1/0 средняя 
[Ac trans]
+27.9 +7.5 28 +28  1012.7  -0.4  722  263           
12 16.08.17 090 (В) 8-12{14}  20000 м    3/3 600 м 
[Cu hum]
+29.3 +7.7 26 +29  1011.6  -0.9  721  261           
15 16.08.17 100 (В) 7-11{13}  20000 м    6/4 1000 м средняя 
[Cu med, cong|Ac trans]
+27.2 +8.3 30 +27  1012.2  0.2  721  263    +29.7       
18 16.08.17 100 (В) 3{11}  20000 м    3/0 верхняя 
[Ci fib]
+21.6 +8.8 44 +22  1013.7  0.5  722  268           
21 16.08.17 080 (В) 20000 м    ясно 
+19.7 +7.1 44 +20  1013.5  -0.4  721  270           
00 17.08.17 060 (СВ) 20000 м    ясно 
+15.9 +9.3 65 +17  1013.7  -0.4  721  273           
03 17.08.17 080 (В) 20000 м    3/0 средняя 
[Ac trans]
+17 +12.5 75 +23  1013.5  721  271  +15.8        сухая 
06 17.08.17 090 (В) 8-11{11}  20000 м    6/5 600 м средняя 
[Sc|Ac trans]
+23.9 +15.8 61 +35  1012.4  0.2  721  264           
09 17.08.17 090 (В) 9-13{14}  20000 м    8/8 600 м 
[Cu hum]
+28.5 +11.9 36 +33  1011.1  -0.5  721  261           
12 17.08.17 090 (В) 10-16{17}  20000 м    6/1 1000 м верхняя 
[Cu hum|Ci fib]
+31.3 +5.3 19 +31  1009.1  -1.5  720  259           
15 17.08.17 090 (В) 9-13  20000 м    9/0 средняя, верхняя 
[Ac trans|Ci fib]
+28.3 +7.6 27 +28  1010.1  0.5  720  262    +31.4       
18 17.08.17 090 (В) 9-12{13}  20000 м    10/5 600 м кучево-дожд., средняя 
[Cb calv|Ac und]
+25.6 +10.3 38 +28  1011.9  1.3  721  264           
21 17.08.17 100 (В) 6{14}  20000 м    10/4 600 м средняя 
[Sc diur, vesp|Ac und]
+22.5 +12.7 54 +28  1012.6  0.2  721  266           
00 18.08.17 080 (В) 6{10}  20000 м    4/0 средняя 
[Ac trans]
+19.7 +12 61 +25  1012.8  -0.3  721  269           
03 18.08.17 070 (В) 20000 м    8/4 1000 м средняя 
[Sc|Ac trans]
+19.6 +10.8 57 +23  1013.7  0.9  722  269  +18.4        сухая 
06 18.08.17 080 (В) 20000 м    9/4 1000 м кучево-дожд., средняя 
[Cb calv|Ac trans]
+22.3 +10.6 47 +25  1014.2  0.9  722  267           
09 18.08.17 120 (ЮВ) 20000 м    9/3 1000 м кучево-дожд., средняя, верхняя 
[Cb calv|Ac trans|Ci fib]
+24.7 +12.2 46 +30  1015.1  1.3  723  265           
12 18.08.17 120 (ЮВ) 6{10}  20000 м    9/3 1000 м средняя 
[Sc diur, vesp|Ac trans]
+24.1 +8.6 37 +24  1015.7  0.4  724  266           
15 18.08.17 110 (В) 20000 м  {дождь}  6/0 средняя 
[Ac trans]
+23.9 +10.3 42 +26  1015.1  -0.5  723  266    +25.5  0.5     
18 18.08.17 110 (В) 20000 м  {дождь}  4/0 средняя 
[Ac trans]
+19.2 +11.1 59 +23  1016.6  0.6  724  270           
21 18.08.17 100 (В) 20000 м    3/0 средняя 
[Ac trans]
+16.8 +12 73 +22  1016.4  -0.5  723  272           
00 19.08.17 070 (В) 20000 м    ясно 
+14.7 +11.4 81 +19  1016.8  -0.1  723  274           
03 19.08.17 080 (В) 20000 м    6/0 средняя, верхняя 
[Ac As|Ci sp]
+15.8 +12.3 80 +21  1017.2  0.6  724  273  +14.2        сухая 
06 19.08.17 090 (В) 10-14{14}  20000 м    6/0 верхняя 
[Ci fib]
+24.3 +8.8 37 +25  1016.8  724  266           
09 19.08.17 100 (В) 8-13{15}  20000 м    8/0 средняя, верхняя 
[Ac trans|Ci fib]
+28.5 +6 24 +29  1015.3  -0.8  724  263           
12 19.08.17 090 (В) 8-12{17}  20000 м    6/0 верхняя 
[Ci fib]
+30.1 +4.5 20 +30  1014.1  -0.9  723  262           
15 19.08.17 090 (В) 4{12}  20000 м    8/0 средняя 
[Ac trans]
+27.4 +5.5 25 +27  1015.1  0.5  724  264    +30.5       
18 19.08.17 190 (Ю) 20000 м    8/0 средняя 
[Ac trans]
+22 +13 57 +28  1016.5  0.5  724  267           
21 19.08.17 110 (В) 20000 м    3/0 средняя 
[Ac trans]
+19.4 +13 66 +26  1016.2  -0.7  723  270           
00 20.08.17 080 (В) 20000 м    ясно 
+17.2 +13.1 77 +24  1016.2  -0.4  723  271           
03 20.08.17 080 (В) 20000 м    3/0 средняя 
[Ac trans]
+16.2 +11.1 72 +19  1016.4  723  273  +15.3        сухая 
06 20.08.17 100 (В) 20000 м    3/0 средняя 
[Ac trans]
+24.7 +9.2 37 +26  1015.3  0.4  723  266           
09 20.08.17 100 (В) 8-13{15}  20000 м    6/1 600 м средняя, верхняя 
[Cu hum|Ac trans|Ci fib]
+29.3 +5.4 22 +29  1013.3  -1.2  722  262           
12 20.08.17 110 (В) 7-10{14}  20000 м    9/3 600 м кучево-дожд., средняя 
[Cb calv|Ac trans]
+28.7 +3.6 20 +29  1012.8  -0.6  722  263           
15 20.08.17 110 (В) 3{13}  20000 м    9/3 1000 м средняя 
[Sc diur, vesp|Ac trans]
+24.9 +8.7 36 +25  1012.9  -0.5  722  265    +30.8       
18 20.08.17 110 (В) 20000 м    3/0 средняя 
[Ac trans]
+20.3 +12.6 61 +26  1014.5  0.8  722  268           
21 20.08.17 100 (В) 5{11}  20000 м    3/0 средняя 
[Ac trans]
+20.3 +8.4 46 +20  1014.6  0.1  722  269           
00 21.08.17 090 (В) 20000 м    ясно 
+19.2 +9.1 52 +20  1014.3  -0.5  722  270           
03 21.08.17 080 (В) 20000 м    ясно 
+18.5 +9.1 54 +20  1014  -0.4  722  271  +17.9        сухая 
06 21.08.17 110 (В) 9-12{13}  20000 м    1/0 средняя 
[Ac trans]
+23.8 +11.4 46 +28  1012.9  0.1  722  265           
09 21.08.17 120 (ЮВ) 8-12{19}  20000 м    ясно 
+29 +5.9 23 +29  1011.1  -0.9  721  262           
12 21.08.17 100 (В) 9-14{14}  20000 м    ясно 
+30.9 +5.6 20 +31  1008.8  -1.9  719  260           
15 21.08.17 110 (В) 9-13{14}  20000 м    ясно 
+29.4 +4.9 21 +29  1007.6  -1.4  718  261    +31.2       
18 21.08.17 080 (В) 6{13}  20000 м    ясно 
+24.7 +4.6 27 +25  1008.3  -0.1  718  265           
21 21.08.17 090 (В) 8-11{12}  20000 м    ясно 
+21.6 +13.7 61 +29  1007.8  -0.9  718  265           
00 22.08.17 110 (В) 4{11}  20000 м    ясно 
+18.8 +15.7 82 +30  1007.7  -0.5  717  267           
03 22.08.17 110 (В) 10 км    8/4 300 м средняя 
[St|Ac trans]
+18.6 +17.2 92 +33  1007.4  -0.3  717  267  +17.8        сухая 
06 22.08.17 100 (В) 20000 м    8/3 300 м средняя, верхняя 
[Sc|Ac trans|Ci fib]
+22.5 +17.1 72 +36  1007.2  0.5  717  263           
09 22.08.17 090 (В) 20000 м    4/3 300 м средняя, верхняя 
[Sc|Ac trans|Ci fib]
+28 +16.4 49 +41  1006.7  0.4  718  259           
12 22.08.17 350 (С) 20000 м    5/3 600 м средняя, верхняя 
[Sc|Ac trans|Ci fib]
+29.3 +13.5 38 +37  1006.4  -0.2  718  258           
15 22.08.17 350 (С) 20000 м    6/3 600 м средняя 
[Sc|Ac trans]
+29.7 +12.8 35 +36  1005.5  -0.7  717  258    +31.4       
18 22.08.17 320 (СЗ) 20000 м    1/0 средняя 
[Ac trans]
+25.7 +14.1 49 +34  1006.9  0.7  718  261           
21 22.08.17 360 (С) 20000 м    ясно 
+23.1 +6.3 34 +23  1007.6  0.1  718  266           
00 23.08.17 300 (СЗ) 20000 м  зарница  6/1 1000 м кучево-дожд., средняя 
[Cb calv|Ac As]
+21.7 +14.7 64 +31  1007.6  0.1  718  265           
03 23.08.17 320 (СЗ) 20000 м    4/3 1000 м кучево-дожд., средняя 
[Cb calv|Ac trans]
+20.1 +15.7 76 +31  1008  0.2  718  266  +19.9        сухая 
06 23.08.17 300 (СЗ) 20000 м    8/0 средняя 
[Ac trans]
+23.4 +15.5 61 +34  1008  0.6  718  263           
09 23.08.17 290 (З) 6-11{11}  20000 м  в посл. час дождь  8/3 1000 м кучево-дожд., средняя 
[Cb calv|Ac trans]
+22.6 +17.3 72 +37  1008.6  0.4  718  263           
12 23.08.17 350 (С) 2{14}  20000 м  гроза, ливневой дождь  10/8 300 м кучево-дожд., средняя 
[Cb cap|Ac und]
+17.4 +16.2 93 +30  1012  2.3  720  269           
15 23.08.17 180 (Ю) 20000 м  {гроза, ливн. осадки}  4/1 1000 м средняя 
[Sc diur, vesp|Ac trans]
+19.1 +16.5 85 +33  1013.1  1.4  721  268    +24.4     
18 23.08.17 270 (З) 20000 м    3/0 средняя 
[Ac trans]
+18.1 +16.2 89 +30  1015.5  2.1  723  270           
21 23.08.17 290 (З) 20000 м    6/6 300 м 
[Sc]
+18 +16.4 90 +31  1017.3  1.7  724  270           
00 24.08.17 240 (ЮЗ) 20000 м    3/0 средняя 
[Ac trans]
+14.6 +13 90 +21  1018.3  0.3  724  274           
03 24.08.17 250 (З) 20000 м    6/0 средняя 
[Ac trans]
+14.9 +13.2 90 +23  1018.7  0.4  725  274  +13.5        влажная 
06 24.08.17 060 (СВ) 20000 м    9/0 средняя 
[Ac trans]
+18.9 +10.9 60 +23  1018.9  0.9  725  271           
09 24.08.17 030 (СВ) 20000 м    9/4 1000 м средняя 
[Sc|Ac trans]
+22.8 +10 44 +25  1018.4  0.1  725  268           
12 24.08.17 040 (СВ) 20000 м    10/4 1000 м средняя 
[Sc|Ac und]
+23 +11 47 +26  1018  -0.3  725  267           
15 24.08.17 090 (В) 20000 м    10/5 1000 м средняя 
[Sc|Ac und]
+21.5 +11.7 54 +26  1018.3  725  269    +23.5       
18 24.08.17 090 (В) 20000 м    10/5 1000 м кучево-дожд., средняя 
[Cb calv|Ac und]
+19.2 +11.2 60 +23  1019.6  0.9  726  271           
21 24.08.17 120 (ЮВ) 20000 м    10/4 1000 м средняя 
[Sc|Ac und]
+18.2 +10.9 62 +23  1019.8  0.1  726  272           
00 25.08.17 230 (ЮЗ) 20000 м    8/0 средняя 
[Ac trans]
+16.9 +11.4 70 +22  1020.4  0.4  726  273           
03 25.08.17 220 (ЮЗ) 20000 м    10/5 1000 м средняя 
[Sc|Ac und]
+18.3 +11.4 64 +24  1020.7  0.6  726  272  +16.7        сухая 
06 25.08.17 030 (СВ) 20000 м    10/5 1000 м средняя 
[Sc|Ac und]
+19.4 +11.9 62 +24  1021.1  0.6  727  271           
09 25.08.17 050 (СВ) 20000 м    9/9 1500 м 
[Sc]
+21.7 +10.1 48 +24  1020.9  0.2  727  270           
12 25.08.17 070 (В) 20000 м    9/0 средняя 
[Ac trans]
+23.1 +12 50 +28  1019.9  -0.7  726  268           
15 25.08.17 020 (С) 20000 м    10/0 средняя 
[Ac und]
+21.7 +12.2 55 +27  1019.8  -0.3  726  269    +23.2       
18 25.08.17 010 (С) 20000 м    9/0 средняя 
[Ac trans]
+18.9 +11.7 63 +24  1020.7  0.4  727  272           
21 25.08.17 240 (ЮЗ) 20000 м    8/0 средняя 
[Ac trans]
+16.1 +12.4 79 +22  1021.1  0.1  726  274           
00 26.08.17 060 (СВ) 20000 м    10/10 1500 м 
[Sc]
+18.4 +12.5 68 +25  1020.6  -0.1  726  272           
03 26.08.17 050 (СВ) 20000 м    10/0 средняя 
[Sc|Ac trans]
+18.3 +8.8 54 +19  1020.4  -0.3  726  273  +15.8        сухая 
06 26.08.17 100 (В) 20000 м    3/0 средняя 
[Ac trans]
+23 +9.5 42 +24  1019.4  0.1  726  268           
09 26.08.17 090 (В) 20000 м    3/3 600 м средняя 
[Cu hum|Ac trans]
+27.2 +8.9 32 +28  1017.7  -1  725  264           
12 26.08.17 060 (СВ) 20000 м    8/4 600 м средняя 
[Cu hum|Ac trans]
+28.1 +8.8 30 +28  1016.3  -1.1  725  263           
15 26.08.17 070 (В) 20000 м    8/5 1000 м средняя 
[Sc|Ac trans]
+26.6 +9.1 33 +27  1016  -0.5  724  264    +29.1       
18 26.08.17 020 (С) 20000 м    6/4 1000 м средняя 
[Sc|Ac trans]
+22.9 +8.9 41 +23  1017.3  0.6  725  268           
21 26.08.17 060 (СВ) 20000 м    3/0 средняя 
[Ac trans]
+19.3 +8.8 51 +20  1017.6  -0.4  724  271           
00 27.08.17 080 (В) 20000 м    ясно 
+16.8 +7.9 56 +17  1017.5  -0.5  724  273           
03 27.08.17 070 (В) 20000 м    1/0 средняя 
[Ac trans]
+17.9 +7.9 52 +18  1016.9  -0.4  724  272  +16.6        сухая 
06 27.08.17 080 (В) 20000 м    ясно 
+25.2 +8.7 35 +25  1015.7  0.1  724  265           
09 27.08.17 100 (В) 20000 м    4/4 600 м 
[Cu hum]
+29.4 +8.3 27 +29  1013.5  -1.4  723  261           
12 27.08.17 110 (В) 4{11}  20000 м    8/8 600 м 
[Cu med, cong]
+31.3 +6.9 22 +31  1011.7  -1.4  722  260           
15 27.08.17 080 (В) 6{16}  20000 м    6/6 1000 м 
[Cu hum]
+28.8 +6.7 25 +29  1011.1  -1  721  262    +31.4       
18 27.08.17 100 (В) 20000 м    3/0 средняя 
[Ac trans]
+22.2 +7.7 39 +22  1012.3  0.1  721  267           
21 27.08.17 120 (ЮВ) 20000 м    ясно 
+20.2 +8.6 47 +20  1012  -0.6  720  269           
00 28.08.17 090 (В) 20000 м    ясно 
+17.5 +8.5 55 +18  1011.9  -0.6  720  271           
03 28.08.17 100 (В) 20000 м    ясно 
+16.9 +8.9 59 +18  1011.9  0.1  720  272  +15.9        сухая 
06 28.08.17 120 (ЮВ) 7-12{12}  20000 м    3/0 средняя 
[Ac trans]
+26 +8.2 32 +26  1009.9  -0.4  720  263           
09 28.08.17 110 (В) 9-12{15}  20000 м    6/3 600 м средняя 
[Cu hum|Ac trans]
+29.8 +4.3 20 +30  1007.6  -1.6  718  260           
12 28.08.17 100 (В) 5{15}  20000 м    5/3 1000 м средняя 
[Cu hum|Ac trans]
+30.7 +7.2 23 +31  1005.9  -1.4  717  259           
15 28.08.17 090 (В) 4{11}  20000 м    3/0 средняя 
[Ac trans]
+28.4 +8.3 28 +28  1005.6  -0.6  717  260    +31.2       
18 28.08.17 110 (В) 20000 м    3/0 средняя 
[Ac trans]
+22.5 +9.1 42 +23  1006.4  -0.2  717  265           
21 28.08.17 110 (В) 20000 м    3/0 средняя 
[Ac trans]
+21.6 +10.5 49 +24  1006.6  717  266           
00 29.08.17 200 (Ю) 20000 м  гроза без осадков  8/5 600 м кучево-дожд., средняя 
[Cb calv|Ac trans]
+20.8 +12 57 +26  1006.6  -0.1  717  266           
03 29.08.17 270 (З) 20000 м  слаб. ливневой дождь, в посл. час гроза  10/6 600 м кучево-дожд., средняя 
[Cb cap|Ac und]
+18.3 +15.7 85 +30  1007.6  0.5  717  267  +18       
06 29.08.17 250 (З) 20000 м  {гроза, ливн. осадки}  8/5 600 м кучево-дожд., средняя 
[Cb calv|Ac trans]
+21.1 +15.8 72 +32  1006.7  -0.4  717  265           
09 29.08.17 230 (ЮЗ) 5{11}  20000 м  слаб. ливневой дождь{гроза}  10/8 300 м кучево-дожд., средняя 
[Cb cap|Ac und]
+18.2 +15.1 82 +28  1008.4  1.1  718  268           
12 29.08.17 260 (З) 20000 м  {гроза, ливн. осадки}  8/3 1000 м средняя, верхняя 
[Sc diur, vesp|Ac trans|Ci]
+25.2 +14.2 50 +34  1007  -0.1  718  262           
15 29.08.17 240 (ЮЗ) 20000 м    8/0 средняя 
[Ac trans]
+25 +14.8 53 +35  1007.6  0.5  718  262    +26.4     
18 29.08.17 270 (З) 20000 м    3/0 средняя 
[Ac trans]
+21.2 +13.7 62 +29  1009.2  0.9  719  266           
21 29.08.17 320 (СЗ) 20000 м    3/0 средняя 
[Ac trans]
+19.5 +13.5 68 +28  1010.8  1.2  720  268           
00 30.08.17 300 (СЗ) 20000 м    6/0 средняя 
[Ac trans]
+18.5 +11.4 63 +23  1011.2  0.1  720  269           
03 30.08.17 290 (З) 20000 м    8/0 средняя 
[Ac trans]
+16.9 +11.8 72 +22  1012.1  0.6  720  271  +16.5        влажная 
06 30.08.17 тихо ()   20000 м    10/4 1000 м средняя 
[Sc|Ac und]
+19.3 +12.7 66 +25  1012.7  721  269           
09 30.08.17 340 (С) 20000 м    10/3 1500 м средняя, верхняя 
[Sc|Ac As|Ci fib]
+24.3 +12.2 47 +29  1011.6  -0.2  721  264           
12 30.08.17 130 (ЮВ) 20000 м    10/4 1000 м средняя, верхняя 
[Sc|Ac trans|Ci fib]
+25.4 +11.7 42 +30  1011  -0.3  720  263           
15 30.08.17 100 (В) 20000 м    10/4 1000 м средняя 
[Sc|Ac und]
+23.7 +12.3 49 +29  1011.4  -0.1  721  265    +26.4       
18 30.08.17 310 (СЗ) 20000 м  {ливн. осадки}  4/0 средняя 
[Ac trans]
+20.6 +11.9 57 +25  1012.7  0.7  721  268           
21 30.08.17 320 (СЗ) 20000 м    ясно 
+17.9 +11.1 64 +21  1013.2  721  271           
00 31.08.17 330 (СЗ) 20000 м  слаб. ливневой дождь  10/4 1000 м кучево-дожд., средняя 
[Cb cap|Ac und]
+18.2 +11.8 66 +25  1012.9  -0.3  721  270           
03 31.08.17 270 (З) 20000 м  слаб. ливневой дождь  10/6 1000 м кучево-дожд., средняя 
[Cb cap|Ac und]
+15.7 +12.9 83 +22  1014  0.6  721  272  +15.7         
06 31.08.17 320 (СЗ) 20000 м  {ливн. осадки}  8/3 600 м средняя 
[Sc diur, vesp|Ac trans]
+18.4 +15.8 85 +30  1013.3  -0.1  721  269           
09 31.08.17 310 (СЗ) 10 км  гроза, ливневой дождь  10/6 600 м кучево-дожд., средняя 
[Cb cap|Ac und]
+17.3 +14.6 84 +27  1014.2  0.6  722  270           
12 31.08.17 260 (З) 20000 м  {гроза, ливн. осадки}  10/5 600 м кучево-дожд., средняя 
[Cb calv|Ac und]
+18.4 +13.8 75 +27  1014.6  0.5  722  270           
15 31.08.17 320 (СЗ) 20000 м  {ливн. осадки}  10/4 1000 м кучево-дожд., средняя 
[Cb calv|Ac und]
+15.6 +12 79 +21  1015.7  0.6  722  273    +19.4     
18 31.08.17 120 (ЮВ) 4{10}  5000 м  гроза, ливневой дождь  10/6 300 м кучево-дожд., средняя 
[Cb cap|Ac und]
+13.7 +12.9 95 +19  1016.5  0.4  723  275           
21 31.08.17 240 (ЮЗ) 20000 м  {гроза, ливн. осадки}  10/5 600 м кучево-дожд., средняя 
[Cb calv|Ac und]
+13.5 +12.7 95 +20  1016.1  -0.4  723  275           
00 01.09.17 240 (ЮЗ) 20000 м  слаб. ливневой дождь{гроза}  10/6 600 м кучево-дожд., средняя 
[Cb cap|Ac und]
+13.5 +11.8 89 +18  1015.9  -0.2  722  275           
03 01.09.17 270 (З) 20000 м  {ливн. осадки}  9/3 1000 м кучево-дожд., средняя 
[Cb calv|Ac trans]
+12.4 +11.3 93 +17  1016.5  0.3  723  276  +12.4       
Время (UTC), дата Ветер
(°,м/с) 
Видим.   Явления Облачность Т
(°С)
Тd
(°С)
f(%) Тe
(°С)
Pmin
(гПа)
dP
(гПа)
Po
(мм)
O2
(г/м3)
Тmin Tmax R s Состояние
почвы